Flag for Kiribati Weather past 2 weeks in Kiritimati, Christmas Island, Kiribati

Now
77 °F

Drizzle. Broken clouds.


Feels Like: 78 °F
Forecast: 76 / 84 °F
Wind: 12 mph from East

Location: Christmas / Cassidy

Current Time: Mar 31, 2015 at 8:13:42 AM

Latest Report: Mar 31, 2015 at 7:00 AM


Visibility: N/A

Pressure: 29.86 "Hg

Humidity: 94%

Dew point: 75 °F

Location of KiritimatiLocation

Historic Weather in Kiritimati — Graph

°F

Kiritimati temperature yesterday

Maximum temperature yesterday: 86 °F (at 11:00 AM)
Minimum temperature yesterday: 79 °F (at 5:00 PM)
Average temperature yesterday: 81 °F

Past Weeks' High & Low Weather Summary

 TemperatureHumidityPressure
High88 °F (Mar 18, 12:00 PM)100% (Mar 23, 4:00 AM)29.98 "Hg (Mar 23, 4:00 AM)
Low77 °F (Mar 23, 1:00 AM)66% (Mar 24, 3:00 PM)29.56 "Hg (Mar 16, 10:00 AM)
Average83 °F82%29.84 "Hg
* Reported Mar 16 8:00 AM — Mar 31 7:00 AM, Kiritimati, Weather by CustomWeather, © 2015

Note: Actual official high and low records may vary slightly from our data, if they occured in-between our weather recording intervals... More about our weather records

Advertising

Kiritimati weather history for previous 24 hours

 ConditionsComfort  
Time TempWeatherWind HumidityBarometerVisibility
7:00 AM
Tue, Mar 31
77 °FDrizzle. Broken clouds.12 mph94%29.86 "HgN/A
6:00 AM79 °FBroken clouds.7 mph89%29.83 "HgN/A
5:00 AM81 °FPassing clouds.2 mph89%29.83 "HgN/A
4:00 AM81 °FPartly cloudy.9 mph84%29.80 "HgN/A
3:00 AM79 °FPartly cloudy.12 mph89%29.80 "HgN/A
2:00 AM79 °FSprinkles. Overcast.7 mph94%29.83 "HgN/A
1:00 AM81 °FPartly cloudy.5 mph89%29.83 "HgN/A
12:00 AM79 °FPassing clouds.9 mph89%29.86 "HgN/A
11:00 PM
Mon, Mar 30
79 °FPartly cloudy.7 mph89%29.86 "HgN/A
10:00 PM79 °FPartly cloudy.12 mph94%29.86 "HgN/A
9:00 PM79 °FPartly cloudy.7 mph89%29.80 "HgN/A
8:00 PM79 °FScattered showers. Partly cloudy.12 mph94%29.86 "HgN/A
7:00 PM79 °FDrizzle. Overcast.9 mph89%29.83 "HgN/A
6:00 PM81 °FPartly cloudy.9 mph84%29.80 "HgN/A
5:00 PM79 °FMostly cloudy.9 mph89%29.80 "HgN/A
4:00 PM84 °FScattered showers. Scattered clouds.14 mph74%29.77 "HgN/A
3:00 PM82 °FScattered showers. Scattered clouds.18 mph84%29.80 "HgN/A
12:00 PM81 °FRain showers. Broken clouds.7 mph89%29.86 "HgN/A
11:00 AM86 °FScattered clouds.14 mph70%29.89 "HgN/A
10:00 AM84 °FScattered clouds.16 mph74%29.92 "HgN/A
9:00 AM84 °FScattered clouds.12 mph79%29.98 "HgN/A
8:00 AM84 °FScattered clouds.12 mph74%29.89 "HgN/A
Weather by CustomWeather, © 2015

See weather overviewHow to use our weather pages